Location: *
(48.8780°N, 19.2358°E)
Time: 08:29:32
(UTC+00:00)

Cosmos 1626 - Pass Details

Date: 18 October 2019
Orbit: 492 x 496 km, 82.5° (Epoch: 17 November)

Event Time Altitude Azimuth Distance (km) Brightness Sun altitude
Rises 16:21:56 0° 344° (NNW) 2,596 5.9 -6.2°
Reaches altitude 10° 16:24:08 10° 337° (NNW) 1,707 5.0 -6.6°
Maximum altitude 16:27:40 42° 266° (W) 724 3.7 -7.2°
Drops below altitude 10° 16:31:10 10° 195° (SSW) 1,691 5.1 -7.8°
Sets 16:33:20 0° 188° (S) 2,568 5.9 -8.1°
